Kankakee, IL

8:22 PM CDT on April 28, 2017 (GMT -0500)
Greater Kankakee

Weather History for KIKK - November, 2013

Change the Weather History Date:

Sunday, November 10, 2013

  Actual Average Record
Temperature  
Mean Temperature 40 °F -  
Max Temperature 47 °F 52 °F 73 °F (2010)
Min Temperature 33 °F 32 °F 10 °F (1991)
Degree Days  
Heating Degree Days 25    
Moisture  
Dew Point 31 °F    
Average Humidity 69    
Maximum Humidity 83    
Minimum Humidity 51    
Precipitation  
Precipitation 0.00 in - - ()
Sea Level Pressure  
Sea Level Pressure 30.29 in    
Wind  
Wind Speed 9 mph (West)    
Max Wind Speed 15 mph    
Max Gust Speed 21 mph    
Visibility 10 miles    
Events      
Averages and records for this station are not official NWS values.
T = Trace of Precipitation, MM = Missing Value Source: NWS Daily Summary

Daily Weather History Graph

Daily Weather History Graph

Search for Another Location

Airport or City:

Trip Planner

Search our weather history database for the weather conditions in past years. The results will help you decide how hot, cold, wet, or windy it might be!

Date:

Astronomy

Nov. 10, 2013 Rise Set
Actual Time 6:33 AM CST 4:36 PM CST
Civil Twilight 6:04 AM CST 5:06 PM CST
Nautical Twilight 5:31 AM CST 5:39 PM CST
Astronomical Twilight 4:58 AM CST 6:11 PM CST
Moon 12:45 PM CST (11/10) No Moon Set
Length of Visible Light 11h 01m
Length of Day
10h 03m
First Quarter, 56% of the Moon is Illuminated
Nov 10
First Quarter
Nov 17
Full
Nov 25
Last Quarter
Dec 2
New
Dec 9
First Quarter

Hourly Weather History & Observations

Time (CST) Temp. Windchill Dew Point Humidity Pressure Visibility Wind Dir Wind Speed Gust Speed Precip Events Conditions
12:15 AM 43.0 °F 37.7 °F 34.2 °F 71% 30.15 in 10.0 mi WNW 9.2 mph 17.3 mph N/A   Clear
12:35 AM 42.3 °F 36.3 °F 32.9 °F 69% 30.16 in 10.0 mi WNW 10.4 mph 18.4 mph N/A   Clear
12:55 AM 41.5 °F 34.6 °F 32.0 °F 69% 30.17 in 10.0 mi WNW 12.7 mph 18.4 mph N/A   Clear
1:15 AM 40.8 °F 32.9 °F 31.6 °F 70% 30.17 in 10.0 mi WNW 15.0 mph 20.7 mph N/A   Clear
1:35 AM 40.5 °F 33.6 °F 30.2 °F 67% 30.17 in 10.0 mi WNW 11.5 mph 19.6 mph N/A   Clear
1:55 AM 40.1 °F 32.7 °F 29.3 °F 65% 30.17 in 10.0 mi WNW 12.7 mph 18.4 mph N/A   Clear
2:15 AM 39.7 °F 33.7 °F 28.8 °F 65% 30.19 in 10.0 mi WNW 9.2 mph - N/A   Clear
2:35 AM 38.3 °F 33.2 °F 29.7 °F 71% 30.19 in 10.0 mi WNW 6.9 mph - N/A   Clear
2:55 AM 37.6 °F 31.0 °F 30.2 °F 75% 30.19 in 10.0 mi West 9.2 mph - N/A   Clear
3:15 AM 37.6 °F 30.5 °F 30.6 °F 76% 30.20 in 10.0 mi West 10.4 mph 16.1 mph N/A   Clear
3:35 AM 37.6 °F 30.5 °F 30.2 °F 75% 30.20 in 10.0 mi WNW 10.4 mph - N/A   Clear
3:55 AM 37.4 °F 29.8 °F 30.2 °F 75% 30.21 in 10.0 mi WNW 11.5 mph - N/A   Clear
4:15 AM 37.2 °F 29.6 °F 30.2 °F 76% 30.22 in 10.0 mi WNW 11.5 mph 17.3 mph N/A   Clear
4:35 AM 36.7 °F 28.4 °F 30.2 °F 77% 30.23 in 10.0 mi WNW 12.7 mph 18.4 mph N/A   Clear
4:55 AM 36.7 °F 28.9 °F 29.8 °F 76% 30.24 in 10.0 mi WNW 11.5 mph 16.1 mph N/A   Clear
5:15 AM 35.8 °F 27.8 °F 29.3 °F 77% 30.25 in 10.0 mi WNW 11.5 mph 16.1 mph N/A   Clear
5:35 AM 35.4 °F 27.8 °F 29.3 °F 78% 30.27 in 10.0 mi WNW 10.4 mph - N/A   Clear
5:55 AM 34.7 °F 27.5 °F 29.3 °F 81% 30.27 in 10.0 mi WNW 9.2 mph - N/A   Clear
6:15 AM 34.3 °F 26.5 °F 29.1 °F 81% 30.28 in 10.0 mi WNW 10.4 mph - N/A   Clear
6:35 AM 33.8 °F 25.8 °F 28.9 °F 82% 30.29 in 10.0 mi WNW 10.4 mph - N/A   Clear
6:55 AM 33.8 °F 27.7 °F 28.9 °F 82% 30.30 in 10.0 mi WNW 6.9 mph - N/A   Clear
7:15 AM 34.0 °F 26.6 °F 29.1 °F 82% 30.31 in 10.0 mi WNW 9.2 mph - N/A   Clear
7:35 AM 35.1 °F 26.9 °F 28.9 °F 78% 30.32 in 10.0 mi WNW 11.5 mph - N/A   Clear
7:55 AM 36.3 °F 28.9 °F 29.3 °F 76% 30.33 in 10.0 mi WNW 10.4 mph - N/A   Clear
8:15 AM 37.8 °F 31.3 °F 30.0 °F 74% 30.34 in 10.0 mi West 9.2 mph - N/A   Clear
8:35 AM 38.5 °F 32.1 °F 29.8 °F 71% 30.34 in 10.0 mi WNW 9.2 mph - N/A   Clear
8:55 AM 39.4 °F 32.7 °F 30.0 °F 69% 30.35 in 10.0 mi WNW 10.4 mph 18.4 mph N/A   Clear
9:15 AM 40.5 °F 33.6 °F 30.2 °F 67% 30.35 in 10.0 mi WNW 11.5 mph 16.1 mph N/A   Clear
9:35 AM 41.5 °F 37.1 °F 30.2 °F 64% 30.36 in 10.0 mi WNW 6.9 mph - N/A   Clear
9:55 AM 42.4 °F 36.5 °F 29.3 °F 60% 30.36 in 10.0 mi WNW 10.4 mph 16.1 mph N/A   Clear
10:15 AM 43.5 °F 37.9 °F 30.0 °F 59% 30.37 in 10.0 mi NW 10.4 mph - N/A   Clear
10:35 AM 44.6 °F 39.2 °F 30.2 °F 57% 30.37 in 10.0 mi WNW 10.4 mph 16.1 mph N/A   Clear
10:55 AM 44.4 °F 38.6 °F 29.8 °F 57% 30.37 in 10.0 mi WNW 11.5 mph 16.1 mph N/A   Clear
11:15 AM 45.3 °F 40.6 °F 30.2 °F 56% 30.35 in 10.0 mi NW 9.2 mph - N/A   Clear
11:35 AM 45.1 °F 40.8 °F 30.6 °F 57% 30.34 in 10.0 mi WNW 8.1 mph - N/A   Clear
11:55 AM 45.9 °F 42.3 °F 30.4 °F 55% 30.33 in 10.0 mi NW 6.9 mph - N/A   Clear
12:15 PM 46.6 °F - 30.9 °F 54% 30.33 in 10.0 mi North 5.8 mph - N/A   Clear
12:35 PM 46.4 °F 42.9 °F 31.1 °F 55% 30.33 in 10.0 mi WNW 6.9 mph - N/A   Clear
12:55 PM 46.8 °F - 30.6 °F 53% 30.34 in 10.0 mi WNW 5.8 mph - N/A   Clear
1:15 PM 47.1 °F - 31.3 °F 54% 30.33 in 10.0 mi West 6.9 mph - N/A   Clear
1:35 PM 47.1 °F - 30.2 °F 52% 30.33 in 10.0 mi West 6.9 mph - N/A   Clear
1:55 PM 47.3 °F - 30.2 °F 52% 30.33 in 10.0 mi West 8.1 mph - N/A   Clear
2:15 PM 47.5 °F - 30.6 °F 52% 30.33 in 10.0 mi West 6.9 mph - N/A   Clear
2:35 PM 47.3 °F - 30.2 °F 52% 30.33 in 10.0 mi West 3.5 mph - N/A   Clear
2:55 PM 47.3 °F - 30.4 °F 52% 30.32 in 10.0 mi West 4.6 mph - N/A   Clear
3:15 PM 47.3 °F - 30.4 °F 52% 30.33 in 10.0 mi West 6.9 mph - N/A   Clear
3:35 PM 47.3 °F - 30.0 °F 51% 30.32 in 10.0 mi West 3.5 mph - N/A   Clear
3:55 PM 46.4 °F 45.2 °F 30.0 °F 53% 30.32 in 10.0 mi West 3.5 mph - N/A   Clear
4:15 PM 45.1 °F 42.0 °F 31.1 °F 58% 30.32 in 10.0 mi WSW 5.8 mph - N/A   Clear
4:35 PM 42.4 °F 38.8 °F 31.5 °F 65% 30.33 in 10.0 mi WSW 5.8 mph - N/A   Clear
4:55 PM 41.7 °F 38.0 °F 31.5 °F 67% 30.32 in 10.0 mi WSW 5.8 mph - N/A   Clear
5:15 PM 39.4 °F 37.2 °F 30.9 °F 72% 30.32 in 10.0 mi SW 3.5 mph - N/A   Clear
5:35 PM 37.8 °F 34.2 °F 30.2 °F 74% 30.32 in 10.0 mi SSW 4.6 mph - N/A   Clear
5:55 PM 36.7 °F 34.1 °F 29.7 °F 76% 30.31 in 10.0 mi SSE 3.5 mph - N/A   Clear
6:15 PM 35.1 °F - 28.9 °F 78% 30.31 in 10.0 mi Calm Calm - N/A   Scattered Clouds
6:35 PM 36.1 °F 32.3 °F 30.4 °F 80% 30.31 in 10.0 mi South 4.6 mph - N/A   Mostly Cloudy
6:55 PM 37.2 °F 33.6 °F 32.5 °F 83% 30.31 in 10.0 mi SW 4.6 mph - N/A   Overcast
7:15 PM 38.5 °F 33.4 °F 32.5 °F 79% 30.31 in 10.0 mi SSW 6.9 mph - N/A   Overcast
7:35 PM 39.9 °F 35.1 °F 32.5 °F 75% 30.31 in 10.0 mi SSW 6.9 mph - N/A   Overcast
7:55 PM 40.3 °F 36.3 °F 32.2 °F 73% 30.31 in 10.0 mi SW 5.8 mph - N/A   Overcast
8:15 PM 39.7 °F 34.9 °F 32.5 °F 75% 30.31 in 10.0 mi SW 6.9 mph - N/A   Overcast
8:35 PM 39.6 °F 35.4 °F 32.9 °F 77% 30.30 in 10.0 mi SSW 5.8 mph - N/A   Overcast
8:55 PM 40.1 °F 36.1 °F 32.9 °F 75% 30.30 in 10.0 mi SW 5.8 mph - N/A   Overcast
9:15 PM 40.3 °F 35.5 °F 32.9 °F 75% 30.30 in 10.0 mi SW 6.9 mph - N/A   Overcast
9:35 PM 40.1 °F 36.1 °F 33.1 °F 76% 30.29 in 10.0 mi SSW 5.8 mph - N/A   Overcast
9:55 PM 38.7 °F 34.3 °F 32.9 °F 80% 30.28 in 10.0 mi SW 5.8 mph - N/A   Overcast
10:15 PM 38.7 °F 34.3 °F 33.3 °F 81% 30.27 in 10.0 mi SW 5.8 mph - N/A   Overcast
10:35 PM 39.2 °F 34.2 °F 33.4 °F 80% 30.27 in 10.0 mi SSW 6.9 mph - N/A   Overcast
10:55 PM 40.1 °F 34.7 °F 33.3 °F 77% 30.27 in 10.0 mi SSW 8.1 mph - N/A   Overcast
11:15 PM 39.7 °F 34.9 °F 33.3 °F 78% 30.27 in 10.0 mi SW 6.9 mph - N/A   Overcast
11:35 PM 39.7 °F 35.6 °F 33.4 °F 78% 30.26 in 10.0 mi SSW 5.8 mph - N/A   Overcast
11:55 PM 40.1 °F 36.1 °F 33.3 °F 77% 30.26 in 10.0 mi SW 5.8 mph - N/A   Overcast